EHI
0 0 0 0 0 0 0 0 0 0 0 0 0 0 1 1 1 0 0 0 0 0 0 0 0 0 0 0 0 0 0 0 0 0 0 0 0 0
0 0 0 0 0 0 0 0 0 0 0 0 0 0 0 0 0 0 0 0 0 0 0 0 0 0 0 0 0 0 0 0 0 0 0 0 0 0
0 0 0 0 0 0 0 0 0 0 0 0 0 0 0 0 0 0 0 0 0 0 0 0 0 0 0 0 0 0 0 0 0 0 0 0 0 0
0 0 0 0 0 0 0 0 0 0 0 0 0 0 0 0 0 0 0 0 0 0 0 0 0 0 0 0 0 0 0 0 0 0 0 0 0 0
0 0 0 0 0 0 0 0 0 0 0 0 0 0 0 0 0 0 0 0 0 0 0 0 0 0 0 0 0 0 0 0 0 0 0 0 0 0
0 0 0 0 0 0 0 0 0 0 0 0 0 0 0 0 0 0 0 0 0 0 0 0 0 0 0 0 0 0 0 0 0 0 0 0 0 0
1 0 0 0 0 0 0 0 0 0 0 0 0 0 0 0 0 0 0 0 0 0 0 0 0 0 0 0 0 0 0 0 0 0 0 0 0 0
2 1 0 0 0 0 0 0 0 0 0 0 0 0 0 0 0 0 0 0 0 0 0 0 0 0 0 0 0 0 0 0 0 0 0 0 0 0
2 1 0 0 0 0 0 0 0 0 0 0 0 0 0 0 0 0 0 0 0 0 0 0 0 0 0 0 0 0 0 0 0 0 0 0 0 0
3 2 1 0 0 0 0 0 0 0 0 0 0 0 0 0 0 0 0 0 0 0 0 0 0 0 0 0 0 0 0 0 0 0 0 0 0 0
3 2 1 0 0 0 0 0 0 0 0 0 0 0 0 0 0 0 0 0 0 0 0 0 0 0 0 0 0 0 0 0 0 0 0 0 0 0
3 3 1 0 0 0 0 0 0 0 0 0 0 0 0 0 0 0 0 0 0 0 0 0 0 0 0 0 0 0 0 0 0 0 0 0 0 0
3 3 2 1 0 0 0 0 0 0 0 0 0 0 0 0 0 0 0 0 0 0 0 0 0 0 0 0 0 0 0 0 0 0 0 0 0 0
3 3 2 1 0 0 0 0 0 0 0 0 0 0 0 0 0 0 0 0 0 0 0 0 0 0 0 0 0 0 0 0 0 0 0 0 0 0
2 2 2 1 0 0 0 0 0 0 0 0 0 0 0 0 0 0 0 0 0 0 0 0 0 0 0 0 0 0 0 0 0 0 0 0 0 0
1 1 1 0 0 0 0 0 0 0 0 0 0 0 0 0 0 0 0 0 0 0 0 0 0 0 0 0 0 0 0 0 0 0 0 0 0 0
0 0 0 0 0 0 0 0 0 0 0 0 0 0 0 0 0 0 0 0 0 0 0 0 0 0 0 0 0 0 0 0 0 0 0 0 0 0
0 0 0 0 0 0 0 0 0 0 0 0 0 0 0 0 0 0 0 0 0 0 0 0 0 0 0 0 0 0 0 0 0 0 0 0 0 0
0 0 0 0 0 0 0 0 0 0 0 0 0 0 0 0 0 0 0 0 0 0 0 0 0 0 0 0 0 0 0 0 0 0 0 0 0 0
0 0 0 0 0 0 0 0 0 0 0 0 0 0 0 0 0 0 0 0 0 0 0 0 0 0 0 0 0 0 0 0 0 0 0 0 0 0
0 0 0 0 0 0 0 0 0 0 0 0 0 0 0 0 0 0 0 0 0 0 0 0 0 0 0 0 0 0 0 0 0 0 0 0 0 0
0 0 0 0 0 0 0 0 0 0 0 0 0 0 0 0 0 0 0 0 0 0 0 0 0 0 0 0 0 0 0 0 0 0 0 0 0 0
0 0 0 0 0 0 0 0 0 0 0 0 0 0 0 0 0 0 0 0 0 0 0 0 0 0 0 0 0 0 0 0 0 0 0 0 0 0
Wind_Speed
2 2 1 1 1 1 2 3 4 2 0 1 2 2 2 3 5 4 5 8 8 8 7 8 8 8 8 7 7 7 6 6 5 4 4 3 4 4
2 3 3 2 2 1 1 1 2 3 2 1 1 1 2 4 6 5 6 10 11 10 9 10 10 10 10 9 9 9 8 7 6 6 5 5 5 5
3 3 3 3 2 2 2 2 2 3 4 2 2 2 3 4 4 4 4 5 5 11 11 11 11 11 11 11 10 10 10 9 8 8 8 7 7 7
4 4 4 3 4 3 2 3 3 3 5 5 2 2 3 3 3 4 4 5 5 10 11 12 11 11 11 11 10 10 10 10 10 9 10 9 9 9
4 4 4 4 4 3 4 3 3 4 4 5 3 2 2 2 3 4 5 4 5 7 9 10 11 11 11 11 10 10 10 10 10 10 10 10 9 9
4 4 4 4 3 3 4 4 4 5 4 5 4 2 2 2 3 3 3 3 3 4 6 6 8 10 10 10 10 10 9 9 9 9 9 8 8 9
4 4 5 7 7 4 4 3 4 4 4 4 3 3 2 2 2 1 3 2 2 2 2 3 3 4 4 6 7 8 8 8 7 7 7 7 7 7
4 4 5 6 7 8 8 7 6 5 5 4 3 3 2 2 2 2 2 2 1 1 2 1 2 2 2 2 3 5 6 6 6 6 6 6 5 6
4 4 4 5 6 5 6 8 7 7 6 5 5 3 3 2 3 3 2 2 1 1 2 1 1 1 1 1 2 3 4 4 4 5 5 5 5 4
4 4 4 4 4 5 5 6 5 4 4 3 4 3 3 3 4 4 4 3 2 1 2 1 1 0 1 1 1 1 2 2 3 3 4 4 4 4
4 4 4 4 5 7 6 6 5 4 5 7 6 5 5 5 5 4 3 4 2 1 1 2 0 1 1 1 1 0 1 1 1 2 2 3 3 3
3 4 5 5 6 6 5 5 4 2 3 4 5 5 4 3 4 4 4 4 2 0 1 2 1 1 1 2 1 1 1 2 2 3 2 2 2 1
2 2 2 5 6 6 5 3 3 3 3 3 3 3 3 3 2 2 2 4 3 1 2 2 2 1 1 1 2 1 1 1 1 2 3 3 3 1
2 1 1 4 6 6 4 5 6 5 3 3 3 2 2 1 1 1 2 2 2 3 2 3 2 2 2 1 2 2 1 1 1 2 2 3 3 3
2 2 3 4 4 4 5 6 5 3 3 3 2 1 0 0 1 2 3 3 3 2 1 1 2 2 2 2 1 1 1 2 1 1 2 2 2 1
2 2 4 4 4 3 3 3 2 2 2 2 1 0 1 1 1 1 1 2 2 3 3 1 2 3 2 1 2 1 1 2 2 2 2 2 2 2
3 2 3 2 2 2 2 2 1 2 2 1 1 1 1 1 1 1 1 2 1 0 2 2 2 1 2 2 1 1 1 2 2 1 1 2 3 3
4 3 2 1 1 1 1 0 1 1 0 1 1 1 1 1 0 1 1 1 1 1 1 1 1 3 3 2 2 3 2 2 2 1 1 1 3 3
3 2 2 2 2 2 2 1 1 1 1 1 1 1 1 1 1 1 1 1 0 1 1 1 1 2 1 2 5 2 3 2 1 1 2 2 3 4
2 2 2 2 2 2 2 2 1 0 0 1 1 1 1 1 1 1 1 1 1 1 1 1 1 2 4 3 3 4 3 3 2 2 2 2 3 4
2 2 2 2 2 2 2 2 2 1 1 1 1 1 1 1 1 1 1 2 1 1 2 3 4 3 1 1 1 3 4 4 4 3 3 1 2 2
3 3 3 3 2 2 2 2 2 1 1 1 1 1 1 1 2 2 2 2 2 2 3 3 2 0 1 1 2 3 3 4 4 4 5 6 4 4
3 3 3 2 2 2 2 2 2 2 1 1 1 0 0 1 1 1 2 2 1 2 1 1 1 0 1 2 2 2 3 3 2 3 4 6 6 8
Wind_Direction
30 26 37 29 62 147 161 163 155 153 95 59 56 34 64 73 68 70 67 74 79 78 77 76 72 69 65 63 61 61 62 62 59 56 48 48 54 53
50 49 37 24 40 51 104 134 146 151 137 81 80 85 72 77 74 73 75 75 71 74 73 73 71 69 66 62 62 61 61 64 66 65 62 60 60 57
39 53 42 37 47 42 60 78 91 115 122 91 72 78 78 81 72 68 73 67 69 76 77 74 73 70 68 66 63 60 59 58 59 63 64 60 58 56
41 48 39 49 50 44 65 79 88 100 122 118 91 79 82 102 94 84 78 77 74 74 74 73 71 69 68 65 61 57 55 55 55 56 58 58 60 61
55 54 42 55 55 50 63 74 82 92 102 120 110 90 82 93 91 83 80 70 79 78 74 70 70 70 68 67 63 59 55 54 53 53 55 56 55 57
63 60 52 56 60 67 74 77 90 92 95 106 105 98 96 100 95 93 80 57 69 73 69 72 67 65 65 67 66 64 58 54 53 54 54 54 53 54
57 57 61 62 62 71 89 95 99 101 104 108 110 101 97 109 113 115 106 85 53 65 66 55 51 46 44 53 62 65 62 59 57 55 55 55 55 54
70 54 57 49 51 61 77 87 102 121 124 118 113 122 128 128 121 125 120 103 60 342 90 63 67 53 24 33 57 66 65 61 57 56 55 54 53 50
73 61 56 48 50 61 67 68 68 83 114 135 134 145 148 158 140 127 128 123 141 202 107 66 29 50 320 25 62 67 63 56 55 54 55 50 46 43
70 74 74 50 55 74 77 68 59 52 70 99 128 138 141 151 153 152 146 111 72 42 89 99 344 339 340 359 352 53 46 38 39 40 43 42 39 41
58 62 75 67 60 78 84 79 63 42 55 71 87 92 97 106 118 106 98 100 82 323 16 104 99 16 355 323 311 315 316 329 353 5 15 20 22 27
55 45 55 71 68 77 92 98 90 66 69 66 59 59 69 80 98 124 138 128 123 258 288 98 109 91 2 305 297 294 299 292 293 299 307 318 338 26
88 52 33 65 68 71 82 98 117 112 90 84 74 58 52 51 48 68 128 141 141 193 219 135 130 118 140 286 303 277 241 268 296 298 295 294 282 223
123 126 85 74 68 66 70 81 87 85 82 78 74 59 56 40 21 39 67 102 146 178 191 144 138 158 140 130 286 299 285 259 246 273 287 305 297 269
134 128 95 77 66 60 63 73 77 80 83 85 86 60 294 250 69 46 30 40 37 33 84 109 127 137 135 160 217 265 286 286 247 255 276 270 264 261
90 87 73 66 66 57 48 59 70 99 117 125 150 12 35 54 59 66 66 45 42 356 350 36 117 132 130 158 163 221 233 253 266 252 250 267 265 244
117 74 59 55 51 38 38 40 53 78 87 89 93 73 63 69 49 57 84 83 83 346 327 340 12 74 150 157 155 245 251 266 253 240 230 281 277 258
113 98 104 121 142 149 131 59 41 77 106 117 117 130 139 142 115 57 85 111 137 238 253 285 11 22 12 332 214 201 237 249 262 253 204 225 276 275
119 137 156 178 186 185 183 178 196 228 187 147 153 171 166 159 153 159 157 131 198 249 262 255 131 119 101 300 297 239 200 243 263 272 244 219 242 263
160 175 190 195 195 191 192 193 198 202 143 165 179 193 178 161 169 196 196 190 203 225 275 288 226 195 195 214 248 280 247 209 210 238 257 266 269 282
200 203 204 202 202 194 190 186 177 181 187 178 192 204 189 163 188 213 210 212 198 201 226 250 253 242 188 102 338 300 289 260 220 212 214 235 288 304
203 207 210 204 193 183 178 175 166 166 167 173 218 218 205 188 196 207 206 210 220 223 234 257 293 32 112 183 256 272 287 306 306 289 233 203 193 215
204 202 203 201 190 176 165 163 158 164 171 173 185 227 223 223 224 217 223 223 226 238 254 278 306 301 244 226 244 267 285 296 306 320 306 295 268 256